Location: Unspecified
(43.4354°N, 0.0000°E)
Time: 10:04:45
(UTC+00:00)

Transit 2A - Pass Details

Date: 16 June 2019
Orbit: 597 x 962 km, 66.7° (Epoch: 24 August)

Event Time Altitude Azimuth Distance (km) Brightness Sun altitude
Rises 10:50:54 0° 326° (NW) 3,459 9.1 65.3°
Reaches altitude 10° 10:53:31 10° 323° (NW) 2,464 8.5 65.6°
Maximum altitude 10:59:06 62° 244° (WSW) 873 7.3 66.2°
Drops below altitude 10° 11:04:04 10° 164° (SSE) 2,203 8.9 66.8°
Sets 11:06:18 0° 161° (SSE) 3,065 9.4 67.0°
